,,PressureMeas_1m,,PRMeasQMR101_1,,RHStat155_1m_1,,SRMeasQMS101R_1m,,TAStat155_1m_1,,GenWind_1,,GenWind_1,
2019-06-29, 07:00:06,VALID,916.957,VALID,0.0,VALID,82.123,VALID,28.468,VALID,21.988,INVALID,360.0,VALID,0.0,
2019-06-29, 07:01:06,VALID,916.989,VALID,0.0,VALID,82.42,VALID,28.441,VALID,21.961,INVALID,360.0,VALID,0.0,
2019-06-29, 07:02:06,VALID,917.008,VALID,0.0,VALID,82.331,VALID,28.426,VALID,21.955,INVALID,360.0,VALID,0.0,
2019-06-29, 07:03:06,VALID,917.013,VALID,0.0,VALID,82.202,VALID,28.715,VALID,21.93,INVALID,360.0,VALID,0.0,
2019-06-29, 07:04:06,VALID,917.067,VALID,0.0,VALID,81.531,VALID,29.482,VALID,21.959,INVALID,360.0,VALID,0.0,
2019-06-29, 07:05:06,VALID,917.05,VALID,0.0,VALID,82.56,VALID,30.885,VALID,21.988,INVALID,360.0,VALID,0.0,
2019-06-29, 07:06:06,VALID,917.057,VALID,0.0,VALID,83.084,VALID,32.804,VALID,21.891,INVALID,360.0,VALID,0.0,
2019-06-29, 07:07:06,VALID,917.067,VALID,0.0,VALID,82.774,VALID,34.657,VALID,21.872,INVALID,360.0,VALID,0.0,
2019-06-29, 07:08:06,VALID,917.077,VALID,0.0,VALID,82.586,VALID,36.245,VALID,21.901,INVALID,360.0,VALID,0.0,
2019-06-29, 07:09:06,VALID,917.063,VALID,0.0,VALID,82.284,VALID,37.59,VALID,21.949,INVALID,360.0,VALID,0.0,
2019-06-29, 07:10:06,VALID,917.085,VALID,0.0,VALID,82.222,VALID,38.595,VALID,21.976,INVALID,360.0,VALID,0.0,
2019-06-29, 07:11:06,VALID,917.105,VALID,0.0,VALID,81.601,VALID,39.45,VALID,22.003,INVALID,360.0,VALID,0.0,
2019-06-29, 07:12:06,VALID,917.118,VALID,0.0,VALID,80.603,VALID,40.597,VALID,22.131,INVALID,360.0,VALID,0.0,
2019-06-29, 07:13:06,VALID,917.109,VALID,0.0,VALID,80.298,VALID,42.126,VALID,22.229,INVALID,360.0,VALID,0.0,
2019-06-29, 07:14:06,VALID,917.134,VALID,0.0,VALID,80.475,VALID,43.907,VALID,22.249,INVALID,360.0,VALID,0.0,
2019-06-29, 07:15:06,VALID,917.167,VALID,0.0,VALID,80.772,VALID,46.259,VALID,22.242,INVALID,360.0,VALID,0.0,
2019-06-29, 07:16:06,VALID,917.173,VALID,0.0,VALID,80.897,VALID,48.883,VALID,22.211,INVALID,360.0,VALID,0.0,
2019-06-29, 07:17:06,VALID,917.194,VALID,0.0,VALID,81.285,VALID,51.738,VALID,22.165,INVALID,360.0,VALID,0.0,
2019-06-29, 07:18:06,VALID,917.234,VALID,0.0,VALID,81.241,VALID,55.01,VALID,22.147,INVALID,360.0,VALID,0.0,
2019-06-29, 07:19:06,VALID,917.247,VALID,0.0,VALID,80.705,VALID,58.608,VALID,22.188,INVALID,360.0,VALID,0.0,
2019-06-29, 07:20:06,VALID,917.259,VALID,0.0,VALID,80.756,VALID,62.0,VALID,22.23,INVALID,360.0,VALID,0.0,
2019-06-29, 07:21:06,VALID,917.269,VALID,0.0,VALID,81.014,VALID,65.04,VALID,22.266,INVALID,360.0,VALID,0.0,
2019-06-29, 07:22:06,VALID,917.301,VALID,0.0,VALID,80.7,VALID,67.612,VALID,22.294,INVALID,360.0,VALID,0.0,
2019-06-29, 07:23:06,VALID,917.304,VALID,0.0,VALID,80.657,VALID,69.68,VALID,22.303,INVALID,360.0,VALID,0.0,
2019-06-29, 07:24:06,VALID,917.332,VALID,0.0,VALID,80.872,VALID,71.615,VALID,22.29,INVALID,360.0,VALID,0.0,
2019-06-29, 07:25:06,VALID,917.355,VALID,0.0,VALID,80.651,VALID,73.627,VALID,22.3,INVALID,360.0,VALID,0.0,
2019-06-29, 07:26:06,VALID,917.371,VALID,0.0,VALID,80.791,VALID,75.822,VALID,22.321,INVALID,360.0,VALID,0.0,
2019-06-29, 07:27:06,VALID,917.4,VALID,0.0,VALID,80.304,VALID,77.569,VALID,22.336,INVALID,360.0,VALID,0.0,
2019-06-29, 07:28:06,VALID,917.42,VALID,0.0,VALID,80.467,VALID,78.941,VALID,22.369,INVALID,360.0,VALID,0.0,
2019-06-29, 07:29:06,VALID,917.433,VALID,0.0,VALID,80.078,VALID,80.364,VALID,22.393,INVALID,360.0,VALID,0.0,
2019-06-29, 07:30:06,VALID,917.469,VALID,0.0,VALID,80.057,VALID,81.639,VALID,22.433,INVALID,360.0,VALID,0.0,
2019-06-29, 07:31:06,VALID,917.484,VALID,0.0,VALID,79.614,VALID,83.11,VALID,22.486,INVALID,360.0,VALID,0.0,
2019-06-29, 07:32:06,VALID,917.494,VALID,0.0,VALID,79.614,VALID,84.709,VALID,22.516,INVALID,360.0,VALID,0.0,
2019-06-29, 07:33:06,VALID,917.504,VALID,0.0,VALID,79.427,VALID,86.396,VALID,22.548,INVALID,360.0,VALID,0.0,
2019-06-29, 07:34:06,VALID,917.496,VALID,0.0,VALID,79.265,VALID,89.283,VALID,22.587,INVALID,360.0,VALID,0.0,
2019-06-29, 07:35:06,VALID,917.51,VALID,0.0,VALID,79.389,VALID,100.134,VALID,22.601,INVALID,360.0,VALID,0.0,
2019-06-29, 07:36:06,VALID,917.5,VALID,0.0,VALID,80.201,VALID,91.752,VALID,22.599,INVALID,360.0,VALID,0.0,
2019-06-29, 07:37:06,VALID,917.508,VALID,0.0,VALID,79.749,VALID,92.309,VALID,22.612,INVALID,360.0,VALID,0.0,
2019-06-29, 07:38:06,VALID,917.524,VALID,0.0,VALID,79.45,VALID,93.506,VALID,22.678,INVALID,360.0,VALID,0.0,
2019-06-29, 07:39:06,VALID,917.529,VALID,0.0,VALID,79.948,VALID,93.337,VALID,22.743,INVALID,360.0,VALID,0.0,
2019-06-29, 07:40:06,VALID,917.545,VALID,0.0,VALID,79.551,VALID,93.386,VALID,22.728,INVALID,360.0,VALID,0.0,
2019-06-29, 07:41:06,VALID,917.556,VALID,0.0,VALID,79.965,VALID,92.68,VALID,22.698,INVALID,360.0,VALID,0.0,
2019-06-29, 07:42:06,VALID,917.591,VALID,0.0,VALID,79.267,VALID,92.215,VALID,22.688,INVALID,360.0,VALID,0.0,
2019-06-29, 07:43:06,VALID,917.581,VALID,0.0,VALID,79.08,VALID,93.049,VALID,22.678,INVALID,360.0,VALID,0.0,
2019-06-29, 07:44:06,VALID,917.583,VALID,0.0,VALID,78.828,VALID,94.495,VALID,22.718,INVALID,360.0,VALID,0.0,
2019-06-29, 07:45:06,VALID,917.607,VALID,0.0,VALID,77.843,VALID,96.525,VALID,22.774,INVALID,360.0,VALID,0.0,
2019-06-29, 07:46:06,VALID,917.617,VALID,0.0,VALID,77.745,VALID,98.269,VALID,22.788,INVALID,360.0,VALID,0.0,
2019-06-29, 07:47:06,VALID,917.636,VALID,0.0,VALID,78.848,VALID,98.896,VALID,22.788,INVALID,360.0,VALID,0.0,
2019-06-29, 07:48:06,VALID,917.622,VALID,0.0,VALID,79.728,VALID,99.337,VALID,22.689,INVALID,360.0,VALID,0.0,
2019-06-29, 07:49:06,VALID,917.625,VALID,0.0,VALID,80.172,VALID,99.15,VALID,22.617,INVALID,360.0,VALID,0.0,
2019-06-29, 07:50:06,VALID,917.616,VALID,0.0,VALID,79.5,VALID,99.368,VALID,22.587,INVALID,360.0,VALID,0.0,
2019-06-29, 07:51:06,VALID,917.592,VALID,0.0,VALID,78.986,VALID,99.833,VALID,22.629,INVALID,360.0,VALID,0.0,
2019-06-29, 07:52:06,VALID,917.603,VALID,0.0,VALID,79.521,VALID,102.112,VALID,22.685,INVALID,360.0,VALID,0.0,
2019-06-29, 07:53:06,VALID,917.628,VALID,0.0,VALID,80.252,VALID,107.187,VALID,22.608,INVALID,360.0,VALID,0.0,
2019-06-29, 07:54:06,VALID,917.638,VALID,0.0,VALID,80.252,VALID,113.368,VALID,22.551,INVALID,360.0,VALID,0.0,
2019-06-29, 07:55:06,VALID,917.634,VALID,0.0,VALID,79.601,VALID,118.825,VALID,22.645,INVALID,360.0,VALID,0.0,
2019-06-29, 07:56:06,VALID,917.634,VALID,0.0,VALID,79.136,VALID,124.064,VALID,22.761,INVALID,360.0,VALID,0.0,
2019-06-29, 07:57:06,VALID,917.667,VALID,0.0,VALID,78.719,VALID,199.295,VALID,22.84,INVALID,360.0,VALID,0.0,
2019-06-29, 07:58:06,VALID,917.678,VALID,0.0,VALID,79.245,VALID,202.679,VALID,22.923,INVALID,360.0,VALID,0.0,
2019-06-29, 07:59:06,VALID,917.702,VALID,0.0,VALID,78.649,VALID,129.902,VALID,23.029,INVALID,360.0,VALID,0.0,
2019-06-29, 08:00:06,VALID,917.717,VALID,0.0,VALID,79.023,VALID,124.872,VALID,23.065,INVALID,360.0,VALID,0.0,
2019-06-29, 08:01:06,VALID,917.74,VALID,0.0,VALID,78.894,VALID,201.11,VALID,23.134,INVALID,360.0,VALID,0.0,
2019-06-29, 08:02:06,VALID,917.753,VALID,0.0,VALID,77.417,VALID,175.793,VALID,23.236,INVALID,360.0,VALID,0.0,
2019-06-29, 08:03:06,VALID,917.765,VALID,0.0,VALID,77.29,VALID,250.011,VALID,23.378,INVALID,360.0,VALID,0.0,
2019-06-29, 08:04:06,VALID,917.773,VALID,0.0,VALID,76.383,VALID,259.236,VALID,23.47,INVALID,360.0,VALID,0.0,
2019-06-29, 08:05:06,VALID,917.76,VALID,0.0,VALID,76.08,VALID,200.148,VALID,23.592,INVALID,360.0,VALID,0.0,
2019-06-29, 08:06:06,VALID,917.777,VALID,0.0,VALID,76.389,VALID,172.881,VALID,23.705,INVALID,360.0,VALID,0.0,
2019-06-29, 08:07:06,VALID,917.788,VALID,0.0,VALID,75.948,VALID,244.568,VALID,23.734,INVALID,360.0,VALID,0.0,
2019-06-29, 08:08:06,VALID,917.785,VALID,0.0,VALID,75.965,VALID,121.576,VALID,23.715,INVALID,360.0,VALID,0.0,
2019-06-29, 08:09:06,VALID,917.772,VALID,0.0,VALID,76.685,VALID,131.113,VALID,23.69,INVALID,360.0,VALID,0.0,
2019-06-29, 08:10:06,VALID,917.772,VALID,0.0,VALID,75.864,VALID,234.212,VALID,23.702,INVALID,360.0,VALID,0.0,
2019-06-29, 08:11:06,VALID,917.78,VALID,0.0,VALID,75.545,VALID,196.862,VALID,23.688,INVALID,360.0,VALID,0.0,
2019-06-29, 08:12:06,VALID,917.794,VALID,0.0,VALID,76.412,VALID,255.005,VALID,23.725,INVALID,360.0,VALID,0.0,
2019-06-29, 08:13:06,VALID,917.789,VALID,0.0,VALID,76.802,VALID,279.186,VALID,23.914,INVALID,360.0,VALID,0.0,
2019-06-29, 08:14:06,VALID,917.806,VALID,0.0,VALID,74.529,VALID,299.225,VALID,24.133,INVALID,360.0,VALID,0.0,
2019-06-29, 08:15:06,VALID,917.809,VALID,0.0,VALID,74.332,VALID,263.533,VALID,24.338,INVALID,360.0,VALID,0.0,
2019-06-29, 08:16:06,VALID,917.829,VALID,0.0,VALID,73.533,VALID,311.484,VALID,24.563,INVALID,360.0,VALID,0.0,
2019-06-29, 08:17:06,VALID,917.86,VALID,0.0,VALID,73.105,VALID,275.0,VALID,24.672,INVALID,360.0,VALID,0.0,
2019-06-29, 08:18:06,VALID,917.853,VALID,0.0,VALID,73.559,VALID,316.962,VALID,24.705,INVALID,360.0,VALID,0.0,
2019-06-29, 08:19:06,VALID,917.852,VALID,0.0,VALID,72.476,VALID,241.352,VALID,24.703,INVALID,360.0,VALID,0.0,
2019-06-29, 08:20:06,VALID,917.86,VALID,0.0,VALID,73.11,VALID,314.021,VALID,24.679,INVALID,360.0,VALID,0.0,
2019-06-29, 08:21:06,VALID,917.867,VALID,0.0,VALID,72.561,VALID,328.176,VALID,24.541,INVALID,360.0,VALID,0.0,
2019-06-29, 08:22:06,VALID,917.861,VALID,0.0,VALID,72.236,VALID,307.488,VALID,24.254,INVALID,360.0,VALID,0.0,
2019-06-29, 08:23:06,VALID,917.88,VALID,0.0,VALID,72.927,VALID,337.676,VALID,24.194,INVALID,360.0,VALID,0.0,
2019-06-29, 08:24:06,VALID,917.865,VALID,0.0,VALID,73.148,VALID,340.515,VALID,24.203,INVALID,360.0,VALID,0.0,
2019-06-29, 08:25:06,VALID,917.876,VALID,0.0,VALID,74.235,VALID,342.666,VALID,24.486,INVALID,360.0,VALID,0.0,
2019-06-29, 08:26:06,VALID,917.88,VALID,0.0,VALID,74.288,VALID,346.379,VALID,24.831,INVALID,360.0,VALID,0.0,
2019-06-29, 08:27:06,VALID,917.907,VALID,0.0,VALID,72.932,VALID,349.727,VALID,25.063,INVALID,360.0,VALID,0.0,
2019-06-29, 08:28:06,VALID,917.906,VALID,0.0,VALID,70.714,VALID,353.189,VALID,25.071,INVALID,360.0,VALID,0.0,
2019-06-29, 08:29:06,VALID,917.918,VALID,0.0,VALID,71.914,VALID,357.248,VALID,25.019,INVALID,360.0,VALID,0.0,
2019-06-29, 08:30:06,VALID,917.905,VALID,0.0,VALID,71.426,VALID,289.74,VALID,24.961,INVALID,360.0,VALID,0.0,
2019-06-29, 08:31:06,VALID,917.916,VALID,0.0,VALID,71.112,VALID,200.777,VALID,24.807,INVALID,360.0,VALID,0.0,
2019-06-29, 08:32:06,VALID,917.92,VALID,0.0,VALID,71.385,VALID,134.615,VALID,24.645,INVALID,360.0,VALID,0.0,
2019-06-29, 08:33:06,VALID,917.927,VALID,0.0,VALID,72.934,VALID,173.532,VALID,24.392,INVALID,360.0,VALID,0.0,
2019-06-29, 08:34:06,VALID,917.937,VALID,0.0,VALID,74.77,VALID,371.864,VALID,24.293,INVALID,360.0,VALID,0.0,
2019-06-29, 08:35:06,VALID,917.937,VALID,0.0,VALID,73.496,VALID,394.769,VALID,24.42,INVALID,360.0,VALID,0.0,
2019-06-29, 08:36:06,VALID,917.954,VALID,0.0,VALID,74.729,VALID,401.734,VALID,24.717,INVALID,360.0,VALID,0.0,
2019-06-29, 08:37:06,VALID,917.983,VALID,0.0,VALID,71.782,VALID,404.927,VALID,24.987,INVALID,360.0,VALID,0.0,
2019-06-29, 08:38:06,VALID,917.992,VALID,0.0,VALID,71.703,VALID,396.316,VALID,25.204,INVALID,360.0,VALID,0.0,
2019-06-29, 08:39:06,VALID,918.011,VALID,0.0,VALID,71.489,VALID,417.33,VALID,25.227,INVALID,360.0,VALID,0.0,
2019-06-29, 08:40:06,VALID,918.023,VALID,0.0,VALID,70.961,VALID,399.811,VALID,25.291,INVALID,360.0,VALID,0.0,
2019-06-29, 08:41:06,VALID,918.031,VALID,0.0,VALID,71.076,VALID,200.613,VALID,25.2,INVALID,360.0,VALID,0.0,
2019-06-29, 08:42:06,VALID,918.05,VALID,0.0,VALID,71.6,VALID,178.749,VALID,25.071,INVALID,360.0,VALID,0.0,
2019-06-29, 08:43:06,VALID,918.053,VALID,0.0,VALID,70.972,VALID,185.781,VALID,24.878,INVALID,360.0,VALID,0.0,
2019-06-29, 08:44:06,VALID,918.051,VALID,0.0,VALID,71.844,VALID,175.774,VALID,24.657,INVALID,360.0,VALID,0.0,
2019-06-29, 08:45:06,VALID,918.012,VALID,0.0,VALID,71.042,VALID,200.811,VALID,24.488,INVALID,360.0,VALID,0.0,
2019-06-29, 08:46:06,VALID,918.031,VALID,0.0,VALID,72.698,VALID,162.312,VALID,24.305,INVALID,360.0,VALID,0.0,
2019-06-29, 08:47:06,VALID,918.057,VALID,0.0,VALID,73.102,VALID,244.237,VALID,24.277,INVALID,360.0,VALID,0.0,
2019-06-29, 08:48:06,VALID,918.062,VALID,0.0,VALID,73.209,VALID,267.147,VALID,24.236,INVALID,360.0,VALID,0.0,
2019-06-29, 08:49:06,VALID,918.081,VALID,0.0,VALID,73.224,VALID,283.272,VALID,24.26,INVALID,360.0,VALID,0.0,
2019-06-29, 08:50:06,VALID,918.106,VALID,0.0,VALID,73.457,VALID,433.645,VALID,24.291,INVALID,360.0,VALID,0.0,
2019-06-29, 08:51:06,VALID,918.107,VALID,0.0,VALID,73.596,VALID,433.936,VALID,24.276,INVALID,360.0,VALID,0.0,
2019-06-29, 08:52:06,VALID,918.094,VALID,0.0,VALID,73.398,VALID,366.792,VALID,24.39,INVALID,360.0,VALID,0.0,
2019-06-29, 08:53:06,VALID,918.105,VALID,0.0,VALID,72.226,VALID,385.768,VALID,24.506,INVALID,360.0,VALID,0.0,
2019-06-29, 08:54:06,VALID,918.104,VALID,0.0,VALID,72.192,VALID,398.721,VALID,24.669,INVALID,360.0,VALID,0.0,
2019-06-29, 08:55:06,VALID,918.109,VALID,0.0,VALID,71.368,VALID,360.851,VALID,24.794,INVALID,360.0,VALID,0.0,
2019-06-29, 08:56:06,VALID,918.071,VALID,0.0,VALID,71.605,VALID,203.379,VALID,24.686,INVALID,360.0,VALID,0.0,
2019-06-29, 08:57:06,VALID,918.066,VALID,0.0,VALID,72.922,VALID,190.62,VALID,24.633,INVALID,360.0,VALID,0.0,
2019-06-29, 08:58:06,VALID,918.038,VALID,0.0,VALID,73.683,VALID,188.586,VALID,24.387,INVALID,360.0,VALID,0.0,
2019-06-29, 08:59:06,VALID,918.015,VALID,0.0,VALID,73.837,VALID,212.125,VALID,24.232,INVALID,360.0,VALID,0.0,
2019-06-29, 09:00:06,VALID,917.988,VALID,0.0,VALID,74.126,VALID,447.138,VALID,24.283,INVALID,360.0,VALID,0.0,
2019-06-29, 09:01:06,VALID,917.995,VALID,0.0,VALID,73.814,VALID,480.689,VALID,24.649,INVALID,360.0,VALID,0.0,
2019-06-29, 09:02:06,VALID,917.957,VALID,0.0,VALID,73.404,VALID,443.821,VALID,25.035,INVALID,360.0,VALID,0.0,
2019-06-29, 09:03:06,VALID,917.965,VALID,0.0,VALID,72.255,VALID,503.531,VALID,25.24,INVALID,360.0,VALID,0.0,
2019-06-29, 09:04:06,VALID,917.98,VALID,0.0,VALID,70.09,VALID,488.189,VALID,25.509,INVALID,360.0,VALID,0.0,
2019-06-29, 09:05:06,VALID,917.997,VALID,0.0,VALID,70.664,VALID,490.64,VALID,25.496,INVALID,360.0,VALID,0.0,
2019-06-29, 09:06:06,VALID,917.984,VALID,0.0,VALID,72.16,VALID,492.761,VALID,25.535,INVALID,360.0,VALID,0.0,
2019-06-29, 09:07:06,VALID,917.975,VALID,0.0,VALID,69.802,VALID,493.735,VALID,25.782,INVALID,360.0,VALID,0.0,
2019-06-29, 09:08:06,VALID,917.958,VALID,0.0,VALID,70.818,VALID,488.353,VALID,25.896,INVALID,360.0,VALID,0.0,
2019-06-29, 09:09:06,VALID,917.939,VALID,0.0,VALID,67.897,VALID,488.143,VALID,25.976,INVALID,360.0,VALID,0.0,
2019-06-29, 09:10:06,VALID,917.927,VALID,0.0,VALID,68.546,VALID,489.25,VALID,26.19,INVALID,360.0,VALID,0.0,
2019-06-29, 09:11:06,VALID,917.926,VALID,0.0,VALID,68.189,VALID,493.088,VALID,26.389,INVALID,360.0,VALID,0.0,
2019-06-29, 09:12:06,VALID,917.917,VALID,0.0,VALID,66.179,VALID,496.09,VALID,26.419,INVALID,360.0,VALID,0.0,
2019-06-29, 09:13:06,VALID,917.925,VALID,0.0,VALID,65.362,VALID,504.419,VALID,26.271,INVALID,360.0,VALID,0.0,
2019-06-29, 09:14:06,VALID,917.914,VALID,0.0,VALID,68.064,VALID,508.046,VALID,26.05,INVALID,360.0,VALID,0.0,
2019-06-29, 09:15:06,VALID,917.926,VALID,0.0,VALID,68.393,VALID,511.435,VALID,26.159,INVALID,360.0,VALID,0.0,
2019-06-29, 09:16:06,VALID,917.906,VALID,0.0,VALID,68.759,VALID,512.768,VALID,26.299,INVALID,360.0,VALID,0.0,
2019-06-29, 09:17:06,VALID,917.906,VALID,0.0,VALID,66.367,VALID,512.261,VALID,26.386,INVALID,360.0,VALID,0.0,
2019-06-29, 09:18:06,VALID,917.899,VALID,0.0,VALID,67.382,VALID,514.303,VALID,26.38,INVALID,360.0,VALID,0.0,
2019-06-29, 09:19:06,VALID,917.886,VALID,0.0,VALID,66.283,VALID,521.676,VALID,26.367,INVALID,360.0,VALID,0.0,
2019-06-29, 09:20:06,VALID,917.874,VALID,0.0,VALID,66.267,VALID,532.06,VALID,26.354,INVALID,360.0,VALID,0.0,
2019-06-29, 09:21:06,VALID,917.877,VALID,0.0,VALID,65.815,VALID,536.486,VALID,26.243,INVALID,360.0,VALID,0.0,
2019-06-29, 09:22:06,VALID,917.871,VALID,0.0,VALID,66.151,VALID,473.126,VALID,26.027,INVALID,360.0,VALID,0.0,
2019-06-29, 09:23:06,VALID,917.865,VALID,0.0,VALID,66.834,VALID,532.993,VALID,25.669,INVALID,360.0,VALID,0.0,
2019-06-29, 09:24:06,VALID,917.861,VALID,0.0,VALID,67.544,VALID,539.008,VALID,25.41,INVALID,360.0,VALID,0.0,
2019-06-29, 09:25:06,VALID,917.852,VALID,0.0,VALID,68.452,VALID,540.646,VALID,25.302,INVALID,360.0,VALID,0.0,
2019-06-29, 09:26:06,VALID,917.826,VALID,0.0,VALID,70.358,VALID,542.166,VALID,25.456,INVALID,360.0,VALID,0.0,
2019-06-29, 09:27:06,VALID,917.811,VALID,0.0,VALID,68.711,VALID,548.097,VALID,25.74,INVALID,360.0,VALID,0.0,
2019-06-29, 09:28:06,VALID,917.828,VALID,0.0,VALID,67.027,VALID,549.745,VALID,25.786,INVALID,360.0,VALID,0.0,
2019-06-29, 09:29:06,VALID,917.818,VALID,0.0,VALID,67.491,VALID,550.905,VALID,25.848,INVALID,360.0,VALID,0.0,
2019-06-29, 09:30:06,VALID,917.82,VALID,0.0,VALID,66.736,VALID,552.292,VALID,25.875,INVALID,360.0,VALID,0.0,
2019-06-29, 09:31:06,VALID,917.812,VALID,0.0,VALID,67.124,VALID,554.324,VALID,25.861,INVALID,360.0,VALID,0.0,
2019-06-29, 09:32:07,VALID,917.798,VALID,0.0,VALID,67.834,VALID,564.143,VALID,25.829,INVALID,360.0,VALID,0.0,
2019-06-29, 09:33:07,VALID,917.817,VALID,0.0,VALID,68.14,VALID,557.976,VALID,25.878,INVALID,360.0,VALID,0.0,
2019-06-29, 09:34:07,VALID,917.799,VALID,0.0,VALID,67.558,VALID,565.996,VALID,25.719,INVALID,360.0,VALID,0.0,
2019-06-29, 09:35:07,VALID,917.805,VALID,0.0,VALID,69.264,VALID,571.802,VALID,25.693,INVALID,360.0,VALID,0.0,
2019-06-29, 09:36:07,VALID,917.799,VALID,0.0,VALID,67.853,VALID,573.581,VALID,25.663,INVALID,360.0,VALID,0.0,
2019-06-29, 09:37:07,VALID,917.784,VALID,0.0,VALID,67.442,VALID,576.81,VALID,25.498,INVALID,360.0,VALID,0.0,
2019-06-29, 09:38:07,VALID,917.776,VALID,0.0,VALID,68.472,VALID,577.432,VALID,25.35,INVALID,360.0,VALID,0.0,
2019-06-29, 09:39:07,VALID,917.748,VALID,0.0,VALID,69.75,VALID,573.197,VALID,25.511,INVALID,360.0,VALID,0.0,
2019-06-29, 09:40:07,VALID,917.771,VALID,0.0,VALID,67.659,VALID,580.175,VALID,25.662,INVALID,360.0,VALID,0.0,
2019-06-29, 09:41:07,VALID,917.765,VALID,0.0,VALID,68.155,VALID,586.925,VALID,25.682,INVALID,360.0,VALID,0.0,
2019-06-29, 09:42:07,VALID,917.766,VALID,0.0,VALID,67.628,VALID,584.483,VALID,25.856,INVALID,360.0,VALID,0.0,
2019-06-29, 09:43:07,VALID,917.784,VALID,0.0,VALID,66.723,VALID,590.209,VALID,25.839,INVALID,360.0,VALID,0.0,
2019-06-29, 09:44:07,VALID,917.771,VALID,0.0,VALID,66.714,VALID,593.816,VALID,25.683,INVALID,360.0,VALID,0.0,
2019-06-29, 09:45:07,VALID,917.728,VALID,0.0,VALID,67.675,VALID,600.094,VALID,25.562,INVALID,360.0,VALID,0.0,
2019-06-29, 09:46:07,VALID,917.747,VALID,0.0,VALID,67.855,VALID,603.608,VALID,25.527,INVALID,360.0,VALID,0.0,
2019-06-29, 09:47:07,VALID,917.704,VALID,0.0,VALID,67.739,VALID,601.799,VALID,25.506,INVALID,360.0,VALID,0.0,
2019-06-29, 09:48:07,VALID,917.733,VALID,0.0,VALID,69.161,VALID,608.179,VALID,25.714,INVALID,360.0,VALID,0.0,
2019-06-29, 09:49:07,VALID,917.719,VALID,0.0,VALID,68.785,VALID,612.865,VALID,25.865,INVALID,360.0,VALID,0.0,
2019-06-29, 09:50:07,VALID,917.742,VALID,0.0,VALID,66.854,VALID,613.578,VALID,25.931,INVALID,360.0,VALID,0.0,
2019-06-29, 09:51:07,VALID,917.744,VALID,0.0,VALID,65.72,VALID,620.207,VALID,25.949,INVALID,360.0,VALID,0.0,
2019-06-29, 09:52:07,VALID,917.733,VALID,0.0,VALID,67.292,VALID,625.695,VALID,26.004,INVALID,360.0,VALID,0.0,
2019-06-29, 09:53:07,VALID,917.766,VALID,0.0,VALID,68.026,VALID,630.382,VALID,26.329,INVALID,360.0,VALID,0.0,
2019-06-29, 09:54:07,VALID,917.758,VALID,0.0,VALID,65.633,VALID,631.515,VALID,26.357,INVALID,360.0,VALID,0.0,
2019-06-29, 09:55:07,VALID,917.754,VALID,0.0,VALID,65.861,VALID,633.07,VALID,26.216,INVALID,360.0,VALID,0.0,
2019-06-29, 09:56:07,VALID,917.741,VALID,0.0,VALID,65.636,VALID,639.112,VALID,26.456,INVALID,360.0,VALID,0.0,
2019-06-29, 09:57:07,VALID,917.748,VALID,0.0,VALID,65.247,VALID,642.498,VALID,26.763,INVALID,360.0,VALID,0.0,
2019-06-29, 09:58:07,VALID,917.777,VALID,0.0,VALID,65.688,VALID,645.076,VALID,27.041,INVALID,360.0,VALID,0.0,
2019-06-29, 09:59:07,VALID,917.76,VALID,0.0,VALID,64.348,VALID,647.529,VALID,26.906,INVALID,360.0,VALID,0.0,
2019-06-29, 10:00:07,VALID,917.786,VALID,0.0,VALID,64.609,VALID,643.592,VALID,26.626,INVALID,360.0,VALID,0.0,
2019-06-29, 10:01:07,VALID,917.766,VALID,0.0,VALID,65.352,VALID,646.935,VALID,26.433,INVALID,360.0,VALID,0.0,
2019-06-29, 10:02:07,VALID,917.773,VALID,0.0,VALID,65.095,VALID,654.351,VALID,26.389,INVALID,360.0,VALID,0.0,
2019-06-29, 10:03:07,VALID,917.729,VALID,0.0,VALID,64.496,VALID,655.477,VALID,26.305,INVALID,360.0,VALID,0.0,
2019-06-29, 10:04:07,VALID,917.73,VALID,0.0,VALID,66.201,VALID,659.67,VALID,26.339,INVALID,360.0,VALID,0.0,
2019-06-29, 10:05:07,VALID,917.718,VALID,0.0,VALID,64.61,VALID,662.362,VALID,26.365,INVALID,360.0,VALID,0.0,
2019-06-29, 10:06:07,VALID,917.714,VALID,0.0,VALID,66.247,VALID,667.082,VALID,26.436,INVALID,360.0,VALID,0.0,
2019-06-29, 10:07:07,VALID,917.69,VALID,0.0,VALID,65.367,VALID,668.49,VALID,26.503,INVALID,360.0,VALID,0.0,
2019-06-29, 10:08:07,VALID,917.714,VALID,0.0,VALID,65.814,VALID,667.365,VALID,26.406,INVALID,360.0,VALID,0.0,
2019-06-29, 10:09:07,VALID,917.708,VALID,0.0,VALID,66.346,VALID,673.182,VALID,26.378,INVALID,360.0,VALID,0.0,
2019-06-29, 10:10:07,VALID,917.721,VALID,0.0,VALID,67.081,VALID,676.688,VALID,26.472,INVALID,360.0,VALID,0.0,
2019-06-29, 10:11:07,VALID,917.698,VALID,0.0,VALID,65.147,VALID,678.155,VALID,26.529,INVALID,360.0,VALID,0.0,
2019-06-29, 10:12:07,VALID,917.716,VALID,0.0,VALID,65.415,VALID,678.57,VALID,26.666,INVALID,360.0,VALID,0.0,
2019-06-29, 10:13:07,VALID,917.718,VALID,0.0,VALID,63.954,VALID,684.966,VALID,26.474,INVALID,360.0,VALID,0.0,
2019-06-29, 10:14:07,VALID,917.727,VALID,0.0,VALID,65.051,VALID,691.362,VALID,26.16,INVALID,360.0,VALID,0.0,
2019-06-29, 10:15:07,VALID,917.744,VALID,0.0,VALID,67.015,VALID,657.042,VALID,26.32,INVALID,360.0,VALID,0.0,
2019-06-29, 10:16:07,VALID,917.766,VALID,0.0,VALID,66.484,VALID,589.419,VALID,26.649,INVALID,360.0,VALID,0.0,
2019-06-29, 10:17:07,VALID,917.777,VALID,0.0,VALID,64.799,VALID,609.893,VALID,26.878,INVALID,360.0,VALID,0.0,
2019-06-29, 10:18:07,VALID,917.8,VALID,0.0,VALID,64.511,VALID,205.853,VALID,26.953,INVALID,360.0,VALID,0.0,
2019-06-29, 10:19:07,VALID,917.806,VALID,0.0,VALID,65.516,VALID,564.628,VALID,26.706,INVALID,360.0,VALID,0.0,
2019-06-29, 10:20:07,VALID,917.823,VALID,0.0,VALID,66.801,VALID,707.795,VALID,26.584,INVALID,360.0,VALID,0.0,
2019-06-29, 10:21:07,VALID,917.793,VALID,0.0,VALID,65.682,VALID,708.396,VALID,26.595,INVALID,360.0,VALID,0.0,
2019-06-29, 10:22:07,VALID,917.845,VALID,0.0,VALID,65.763,VALID,715.36,VALID,26.345,INVALID,360.0,VALID,0.0,
2019-06-29, 10:23:07,VALID,917.848,VALID,0.0,VALID,66.528,VALID,725.464,VALID,26.314,INVALID,360.0,VALID,0.0,
2019-06-29, 10:24:07,VALID,917.843,VALID,0.0,VALID,66.385,VALID,729.224,VALID,26.374,INVALID,360.0,VALID,0.0,
2019-06-29, 10:25:07,VALID,917.808,VALID,0.0,VALID,66.59,VALID,733.048,VALID,26.544,INVALID,360.0,VALID,0.0,
2019-06-29, 10:26:07,VALID,917.812,VALID,0.0,VALID,64.477,VALID,730.446,VALID,26.577,INVALID,360.0,VALID,0.0,
2019-06-29, 10:27:07,VALID,917.774,VALID,0.0,VALID,64.568,VALID,720.863,VALID,26.545,INVALID,360.0,VALID,0.0,
2019-06-29, 10:28:07,VALID,917.732,VALID,0.0,VALID,64.014,VALID,719.776,VALID,26.458,INVALID,360.0,VALID,0.0,
2019-06-29, 10:29:07,VALID,917.716,VALID,0.0,VALID,64.399,VALID,719.649,VALID,26.613,INVALID,360.0,VALID,0.0,
2019-06-29, 10:30:07,VALID,917.713,VALID,0.0,VALID,63.815,VALID,725.216,VALID,27.024,INVALID,360.0,VALID,0.0,
2019-06-29, 10:31:07,VALID,917.705,VALID,0.0,VALID,62.286,VALID,725.595,VALID,27.475,INVALID,360.0,VALID,0.0,
2019-06-29, 10:32:07,VALID,917.705,VALID,0.0,VALID,61.272,VALID,728.7,VALID,27.846,INVALID,360.0,VALID,0.0,
2019-06-29, 10:33:07,VALID,917.688,VALID,0.0,VALID,61.382,VALID,728.669,VALID,27.948,INVALID,360.0,VALID,0.0,
2019-06-29, 10:34:07,VALID,917.687,VALID,0.0,VALID,61.196,VALID,732.013,VALID,27.554,INVALID,360.0,VALID,0.0,
2019-06-29, 10:35:07,VALID,917.702,VALID,0.0,VALID,62.193,VALID,731.224,VALID,27.353,INVALID,360.0,VALID,0.0,